This is the latest recevied weather packets stored in our database for station/object DL7MAP-13. If no packets are shown the sender has not sent any weather packets the latest 10 day(s).
| Time | Temp. | Humidity | Pressure | Rain* | Wind** | Luminosity | Snow |
|---|---|---|---|---|---|---|---|
| 1777598887 | 6.11° C | 81% | 1024 hPa | - | - | - | - |
| 1777597987 | 6.11° C | 80% | 1023.9 hPa | - | - | - | - |
| 1777597087 | 6.67° C | 79% | 1024 hPa | - | - | - | - |
| 1777596187 | 6.67° C | 79% | 1024 hPa | - | - | - | - |
| 1777595286 | 6.67° C | 79% | 1023.9 hPa | - | - | - | - |
| 1777594387 | 6.67° C | 77% | 1024 hPa | - | - | - | - |
| 1777593486 | 7.22° C | 76% | 1023.9 hPa | - | - | - | - |
| 1777592587 | 7.78° C | 74% | 1023.9 hPa | - | - | - | - |
| 1777591687 | 8.33° C | 72% | 1024 hPa | - | - | - | - |
| 1777590786 | 8.89° C | 71% | 1024.1 hPa | - | - | - | - |
| 1777589886 | 9.44° C | 70% | 1024.1 hPa | - | - | - | - |
| 1777588986 | 10° C | 70% | 1024.1 hPa | - | - | - | - |
| 1777588087 | 10° C | 69% | 1024.3 hPa | - | - | - | - |
| 1777587187 | 9.44° C | 70% | 1024.4 hPa | - | - | - | - |
| 1777586287 | 9.44° C | 71% | 1024.1 hPa | - | - | - | - |
| 1777585387 | 9.44° C | 69% | 1024.1 hPa | - | - | - | - |
| 1777584487 | 10° C | 67% | 1024.2 hPa | - | - | - | - |
| 1777583587 | 10° C | 66% | 1024 hPa | - | - | - | - |
| 1777582687 | 10.56° C | 64% | 1024 hPa | - | - | - | - |
| 1777581787 | 11.11° C | 62% | 1024 hPa | - | - | - | - |
| 1777580887 | 11.67° C | 60% | 1024 hPa | - | - | - | - |
| 1777579987 | 11.67° C | 59% | 1024 hPa | - | - | - | - |
| 1777579087 | 12.22° C | 57% | 1023.8 hPa | - | - | - | - |
| 1777578187 | 12.78° C | 55% | 1023.9 hPa | - | - | - | - |
| 1777577287 | 13.33° C | 53% | 1023.8 hPa | - | - | - | - |
* Rain since midnight (hover to see other rain measurements)
** Current wind speed in m/s (hover to see current wind gust speed)